SCP
0 0 0 0 0 -0 -0 -0 -0 0 0 0 0 0 0 0 0 0 0 0 0 0 0 0 -0 0 -0 0 0 -0 -0 0 -0 0 0 0 -0 -0 -0 -0 -0 -0 -0
0 0 0 -0 -1 -0 -0 -0 -0 -0 0 0 0 0 0 0 0 0 0 0 0 0 0 0 -0 0 0 0 0 0 0 0 -0 0 0 0 -0 -0 -0 0 -0 -0 0
0 0 0 -0 -0 -0 -0 -0 -0 -0 -0 0 0 1 0 0 1 1 1 0 0 0 0 0 0 0 0 0 0 0 0 0 -0 0 0 0 0 0 0 -0 0 0 0
0 0 0 -0 -0 -0 -0 -0 -0 -0 0 0 0 1 0 1 1 2 0 1 0 0 0 0 0 0 0 0 0 0 0 0 0 0 -0 0 0 0 0 0 -0 -0 -0
-0 0 0 0 0 -0 -0 -0 -0 0 0 0 0 2 1 1 1 1 1 1 1 0 0 0 0 0 0 -0 0 0 0 0 0 0 0 0 0 0 0 0 0 0 -0
0 0 0 0 0 0 0 0 0 0 0 0 0 0 2 2 1 2 3 1 0 0 0 0 0 0 0 0 0 0 0 0 0 0 0 0 0 0 0 0 0 0 0
0 0 0 0 0 0 0 0 0 1 1 1 0 0 1 1 1 2 1 1 1 0 0 1 0 0 0 0 0 1 0 0 0 0 0 -0 0 0 0 0 -0 0 0
0 0 0 0 0 0 0 0 0 1 1 1 1 1 1 1 0 2 2 1 1 0 1 0 0 0 0 0 0 1 0 0 0 0 0 0 -0 0 0 0 0 -0 0
0 0 0 0 0 0 0 0 1 1 1 1 2 2 0 0 0 0 1 1 1 0 0 0 0 0 0 0 0 0 1 0 0 0 0 0 0 0 0 0 0 0 0
0 0 0 0 0 0 0 0 1 1 1 0 0 0 0 0 0 0 0 0 0 0 0 0 0 0 0 0 0 0 0 0 0 0 0 0 0 0 0 0 0 0 0
0 0 0 0 0 0 0 0 0 1 1 0 0 0 0 0 0 0 0 0 0 0 0 0 0 0 0 0 0 0 0 1 0 0 0 0 0 0 0 0 0 0 0
1 1 0 0 0 0 0 0 0 0 0 1 1 0 -0 -0 0 -0 -0 -0 -0 -0 -0 0 0 0 1 1 1 0 0 1 1 0 0 0 0 0 0 0 0 0 0
1 1 1 1 1 1 1 0 0 0 0 1 0 0 0 0 0 0 -0 0 0 -0 -0 -0 -0 0 0 0 1 1 0 1 1 0 0 0 0 0 0 0 0 0 0
1 1 1 1 1 1 1 1 1 0 0 0 0 0 0 0 0 -0 -0 -0 0 -0 -0 0 0 -0 0 1 1 1 1 1 0 0 0 0 0 0 0 0 0 0 1
1 1 1 1 1 1 1 1 1 1 1 0 0 0 0 0 0 0 0 0 0 0 0 0 0 -0 -0 0 1 1 1 1 1 1 1 0 0 0 1 1 0 1 1
1 1 1 1 1 1 0 0 0 0 0 0 0 1 0 0 0 0 0 0 0 0 0 0 0 0 0 0 0 1 1 1 1 1 1 1 1 1 1 0 0 0 1
1 1 1 1 1 0 0 0 0 0 0 0 0 0 0 0 0 0 0 0 0 0 0 0 0 -0 -0 -0 0 0 0 0 1 1 1 1 0 1 2 0 0 0 0
1 1 1 1 0 0 0 0 0 0 0 0 0 0 0 0 0 0 0 0 1 1 0 0 0 0 0 0 0 0 -0 0 0 0 0 1 1 1 2 1 1 0 1
1 0 0 0 0 0 0 0 0 0 0 0 0 0 0 0 0 0 0 0 0 0 1 0 0 0 0 0 0 0 0 0 0 0 0 0 1 0 0 2 1 1 1
1 0 0 0 0 0 0 0 0 0 0 0 0 0 0 0 0 0 0 0 0 0 0 0 0 0 0 0 0 0 0 0 0 0 -0 -0 0 0 0 1 2 1 1
1 0 0 0 0 0 0 0 0 0 0 0 0 0 0 0 0 0 0 1 0 0 0 0 0 0 0 0 0 0 0 0 0 0 0 0 0 0 0 0 2 1 2
0 0 0 0 0 0 0 0 0 1 0 0 0 0 0 0 0 0 0 0 1 0 0 1 0 0 1 0 0 0 0 0 0 0 0 0 0 0 0 0 0 1 0
0 0 0 0 0 0 1 0 1 0 0 0 0 0 1 0 1 1 1 0 0 0 0 0 0 0 0 0 0 0 0 0 0 0 0 0 0 0 0 0 0 0 1
0 0 0 0 0 0 0 0 0 0 0 0 0 0 0 0 1 0 0 0 0 0 0 0 0 0 0 0 0 0 0 0 0 0 0 0 0 0 0 0 0 0 2
0 0 0 0 0 0 0 0 0 0 0 0 0 0 0 0 0 0 0 0 0 0 0 0 0 0 0 0 0 0 1 0 0 0 0 0 0 0 0 0 0 0 0
0 0 0 0 0 0 0 0 0 0 0 0 0 0 0 0 0 0 0 0 0 0 0 0 0 0 0 0 0 0 0 0 0 0 0 0 0 0 0 0 0 0 0
Wind_Speed_500mb
24 26 33 39 39 39 40 40 39 38 38 37 33 33 35 31 31 31 34 31 29 26 27 24 18 17 22 19 13 15 14 11 12 11 19 26 30 27 32 34 30 33 27
14 20 29 36 44 41 41 40 42 41 46 35 36 34 31 31 35 30 30 29 29 35 28 25 21 22 18 19 17 16 15 12 12 17 13 11 30 34 35 35 35 34 36
1 11 22 33 39 44 43 41 41 42 41 40 35 35 35 35 32 31 30 25 28 27 30 33 26 27 24 27 19 17 19 16 15 16 14 9 10 21 30 34 31 32 33
5 3 11 21 32 38 39 37 37 37 41 44 42 46 45 44 33 37 28 24 17 20 23 28 28 29 33 26 22 22 24 19 17 17 15 17 15 10 7 11 27 28 37
9 7 7 10 19 26 33 31 33 37 39 41 50 51 57 53 45 28 28 24 23 22 23 28 32 30 32 30 31 26 29 22 17 19 18 18 18 24 19 20 18 22 27
8 12 9 6 16 21 24 23 24 28 32 37 43 55 64 61 56 45 31 26 24 22 23 28 29 30 34 32 38 28 28 25 26 24 18 20 17 15 17 21 21 23 23
10 11 10 11 15 17 19 17 18 19 23 28 36 45 52 62 50 35 38 24 25 28 24 26 26 25 32 33 35 35 37 31 25 27 24 28 27 26 27 24 28 26 23
13 14 13 12 13 14 16 14 12 10 14 18 33 41 45 47 51 57 31 28 27 26 25 30 27 26 31 35 37 34 36 31 33 28 30 28 26 21 25 29 29 26 23
15 16 14 13 13 13 12 10 9 9 8 17 33 46 49 45 41 37 31 24 22 23 34 27 31 29 33 35 31 37 37 36 40 29 30 28 28 25 30 25 23 22 27
18 17 14 13 13 10 8 8 10 10 7 15 22 32 17 35 31 30 19 22 29 29 37 33 28 29 32 37 38 34 36 39 34 32 33 30 28 27 24 29 29 28 28
18 18 16 14 12 9 6 4 3 7 6 5 13 18 12 20 21 19 19 16 18 20 30 32 34 33 35 35 39 41 39 40 41 41 40 32 36 29 28 24 24 25 20
16 17 16 13 11 7 3 2 3 6 9 12 8 8 21 22 20 24 21 22 19 29 32 34 35 31 37 36 39 36 35 38 45 43 41 41 30 37 33 27 23 26 26
17 15 13 12 10 7 3 2 4 7 8 13 13 19 18 22 23 25 27 29 28 31 28 35 38 38 37 35 35 36 37 41 43 43 37 33 34 37 34 34 31 25 23
14 13 15 13 14 15 11 7 3 5 7 10 12 17 26 28 33 33 34 37 40 35 29 26 34 40 42 41 37 33 39 43 38 42 37 42 39 37 42 42 41 35 34
19 17 17 17 16 16 15 14 12 6 6 3 7 13 16 20 18 21 27 31 36 39 35 31 35 34 45 40 37 36 39 43 47 48 51 47 43 43 46 45 34 34 32
20 19 18 17 15 15 14 14 14 13 11 11 9 8 10 10 15 20 23 28 30 32 35 36 38 36 37 41 39 35 37 43 49 52 52 54 54 53 57 54 47 40 30
18 18 17 14 13 10 8 7 7 7 6 6 8 10 10 12 15 16 18 20 25 30 31 34 38 40 41 40 42 38 40 42 47 54 56 53 49 55 54 45 45 47 45
17 15 13 11 8 5 3 2 2 3 4 5 8 11 14 19 22 23 24 23 24 28 30 33 36 37 36 44 44 43 44 48 48 51 53 52 58 58 53 49 43 49 50
13 11 11 9 6 6 8 9 10 11 15 17 17 19 21 23 24 25 27 27 28 29 33 34 35 33 32 35 40 44 57 60 60 56 48 51 57 55 54 55 49 44 43
8 10 11 14 18 15 15 14 18 20 19 22 24 24 26 28 29 29 31 30 30 33 33 33 34 36 45 42 42 42 38 38 37 44 46 48 47 55 54 60 65 51 51
8 11 14 17 20 17 16 17 22 23 19 21 25 28 31 34 36 42 41 40 40 43 48 45 43 42 42 42 47 47 47 47 38 37 41 45 51 58 57 61 70 63 57
9 9 14 15 16 19 17 19 20 18 20 23 27 30 33 37 41 47 49 51 54 53 56 54 47 38 42 44 43 43 42 36 39 45 42 41 54 66 56 51 62 66 62
14 16 17 18 21 20 16 19 18 22 25 29 32 36 41 46 51 57 61 58 53 53 51 46 45 43 39 38 43 46 44 40 39 42 45 49 56 58 60 56 56 63 62
19 22 25 26 24 22 22 25 27 29 34 39 44 47 50 53 56 56 57 59 57 55 54 52 50 47 43 40 38 43 38 29 30 34 33 35 39 45 43 48 57 60 61
23 23 23 26 28 30 31 33 37 38 43 46 49 50 50 52 52 53 51 53 58 56 56 55 51 50 49 42 44 33 26 30 35 44 37 45 37 33 40 43 47 48 51
21 27 28 31 34 37 40 40 40 42 46 51 52 51 51 51 50 51 54 56 61 62 64 66 67 64 62 65 66 70 65 59 61 53 53 55 47 44 40 40 41 47 49
Wind_Direction_500mb
205 216 214 216 207 210 208 210 213 215 208 210 223 223 224 227 232 235 234 239 253 254 258 249 244 259 265 286 240 224 232 217 256 238 239 232 245 230 230 227 230 232 237
229 220 221 218 213 215 212 212 215 213 221 215 222 226 232 233 235 233 233 237 236 249 248 250 230 259 257 261 263 246 256 221 243 260 268 251 228 232 229 225 229 232 235
221 230 222 225 221 217 215 216 219 218 224 211 226 226 225 233 235 235 244 230 242 239 238 242 228 227 233 267 251 259 257 242 241 235 261 248 237 236 236 220 228 236 232
43 300 250 218 221 218 218 218 220 223 232 229 222 227 227 227 226 234 230 248 264 218 243 255 251 231 241 246 258 253 255 251 263 259 244 257 249 271 291 200 223 229 232
58 21 330 234 208 204 205 212 223 225 226 232 229 231 231 227 220 224 223 232 233 240 244 236 243 246 243 232 243 234 257 251 256 254 247 246 257 264 250 271 265 245 233
31 36 36 156 177 180 187 199 209 216 229 238 239 243 231 236 229 216 221 215 232 245 251 245 236 246 243 242 242 244 244 245 238 248 245 250 254 261 266 258 268 256 243
61 66 75 114 160 184 194 200 210 221 235 245 254 250 242 234 235 231 233 220 229 249 244 253 259 247 257 242 247 247 247 248 241 257 249 256 253 270 259 259 265 268 257
86 77 97 117 138 158 174 190 208 215 263 284 291 263 249 230 238 222 233 217 240 243 234 233 242 258 245 246 244 248 247 241 246 244 241 245 261 264 270 269 264 272 268
91 94 102 115 142 157 176 188 204 215 274 302 294 289 252 227 218 206 214 216 236 247 262 252 250 244 242 255 242 244 248 237 237 237 244 242 250 255 251 260 264 266 276
110 104 104 111 127 143 160 180 198 217 254 318 357 359 274 176 205 203 226 214 225 241 246 244 246 258 253 249 240 247 252 245 232 236 243 243 246 255 258 262 263 262 268
114 112 109 112 125 138 146 171 232 237 240 292 30 43 78 183 204 199 239 230 255 265 257 245 245 250 246 249 242 234 233 244 247 233 232 245 254 248 254 254 256 273 244
115 113 113 118 121 134 151 221 270 254 243 233 259 102 125 127 180 230 250 260 263 270 264 256 253 248 249 246 246 239 241 246 246 249 238 233 246 263 262 255 256 248 243
125 116 108 111 116 128 153 224 258 280 258 252 253 262 236 239 230 229 239 261 249 264 265 260 255 249 245 242 241 241 245 249 249 247 248 243 243 252 249 246 246 256 252
129 113 113 100 97 90 83 64 7 289 274 264 263 263 279 249 252 255 258 261 257 254 267 266 271 256 248 242 239 246 246 243 242 238 231 239 240 252 260 260 251 242 243
135 131 119 112 101 89 79 71 58 35 9 325 280 277 284 299 294 287 279 276 275 256 256 262 267 259 251 252 257 255 251 245 245 244 240 233 240 241 250 255 252 256 247
140 136 132 125 115 104 90 78 71 63 62 61 52 23 1 313 296 298 292 273 271 268 259 257 256 248 262 263 275 278 269 259 254 256 248 238 231 238 240 245 242 245 245
151 149 145 142 135 128 114 93 86 69 58 47 21 5 356 341 331 320 312 287 276 274 270 267 266 270 269 272 274 270 270 268 274 267 261 251 247 244 245 247 239 237 237
163 164 164 163 170 176 220 222 278 281 291 309 320 328 330 323 318 316 316 308 297 288 279 277 274 273 277 277 274 267 265 268 269 265 264 267 260 244 240 240 241 234 233
176 192 198 214 227 255 265 274 283 291 297 297 299 300 303 306 309 312 310 308 310 304 296 293 294 293 289 279 275 271 261 267 276 280 273 271 261 255 244 241 237 244 238
193 221 244 254 256 249 277 264 279 278 285 290 291 289 290 294 297 296 300 302 308 313 307 298 292 289 294 295 285 282 288 286 280 278 275 287 285 264 259 250 246 245 243
239 250 260 274 278 275 274 276 284 285 289 285 286 287 289 285 285 290 293 295 297 294 296 294 294 292 293 297 288 287 292 284 278 282 289 274 275 278 278 260 245 245 255
269 276 283 284 280 282 278 282 282 277 280 286 289 289 289 290 289 284 281 282 285 291 293 293 298 291 295 298 283 292 296 290 273 276 282 281 260 258 263 266 246 245 245
289 289 290 288 289 279 279 288 283 286 290 290 288 287 283 278 276 279 284 287 286 284 284 285 286 286 285 282 283 281 287 294 289 271 275 285 288 267 252 253 249 237 235
299 295 295 294 292 288 287 289 294 293 292 293 293 293 290 287 282 280 276 276 276 276 277 281 284 284 282 279 277 275 272 281 290 295 283 285 296 263 256 255 251 233 228
302 298 296 294 294 293 291 293 295 296 295 295 294 295 295 293 289 282 277 271 269 270 273 275 279 281 277 271 273 250 255 259 275 274 276 277 276 282 270 256 246 236 227
302 299 296 296 297 296 295 295 295 295 293 293 295 295 294 294 291 287 284 278 276 274 275 278 279 280 275 267 262 261 261 263 274 269 266 267 265 259 269 248 247 233 222
Wind_Speed_850mb
24 26 33 39 39 39 40 40 39 38 38 37 33 33 35 31 31 31 34 31 29 26 27 24 18 17 22 19 13 15 14 11 12 11 19 26 30 27 32 34 30 33 27
14 20 29 36 44 41 41 40 42 41 46 35 36 34 31 31 35 30 30 29 29 35 28 25 21 22 18 19 17 16 15 12 12 17 13 11 30 34 35 35 35 34 36
1 11 22 33 39 44 43 41 41 42 41 40 35 35 35 35 32 31 30 25 28 27 30 33 26 27 24 27 19 17 19 16 15 16 14 9 10 21 30 34 31 32 33
5 3 11 21 32 38 39 37 37 37 41 44 42 46 45 44 33 37 28 24 17 20 23 28 28 29 33 26 22 22 24 19 17 17 15 17 15 10 7 11 27 28 37
9 7 7 10 19 26 33 31 33 37 39 41 50 51 57 53 45 28 28 24 23 22 23 28 32 30 32 30 31 26 29 22 17 19 18 18 18 24 19 20 18 22 27
8 12 9 6 16 21 24 23 24 28 32 37 43 55 64 61 56 45 31 26 24 22 23 28 29 30 34 32 38 28 28 25 26 24 18 20 17 15 17 21 21 23 23
10 11 10 11 15 17 19 17 18 19 23 28 36 45 52 62 50 35 38 24 25 28 24 26 26 25 32 33 35 35 37 31 25 27 24 28 27 26 27 24 28 26 23
13 14 13 12 13 14 16 14 12 10 14 18 33 41 45 47 51 57 31 28 27 26 25 30 27 26 31 35 37 34 36 31 33 28 30 28 26 21 25 29 29 26 23
15 16 14 13 13 13 12 10 9 9 8 17 33 46 49 45 41 37 31 24 22 23 34 27 31 29 33 35 31 37 37 36 40 29 30 28 28 25 30 25 23 22 27
18 17 14 13 13 10 8 8 10 10 7 15 22 32 17 35 31 30 19 22 29 29 37 33 28 29 32 37 38 34 36 39 34 32 33 30 28 27 24 29 29 28 28
18 18 16 14 12 9 6 4 3 7 6 5 13 18 12 20 21 19 19 16 18 20 30 32 34 33 35 35 39 41 39 40 41 41 40 32 36 29 28 24 24 25 20
16 17 16 13 11 7 3 2 3 6 9 12 8 8 21 22 20 24 21 22 19 29 32 34 35 31 37 36 39 36 35 38 45 43 41 41 30 37 33 27 23 26 26
17 15 13 12 10 7 3 2 4 7 8 13 13 19 18 22 23 25 27 29 28 31 28 35 38 38 37 35 35 36 37 41 43 43 37 33 34 37 34 34 31 25 23
14 13 15 13 14 15 11 7 3 5 7 10 12 17 26 28 33 33 34 37 40 35 29 26 34 40 42 41 37 33 39 43 38 42 37 42 39 37 42 42 41 35 34
19 17 17 17 16 16 15 14 12 6 6 3 7 13 16 20 18 21 27 31 36 39 35 31 35 34 45 40 37 36 39 43 47 48 51 47 43 43 46 45 34 34 32
20 19 18 17 15 15 14 14 14 13 11 11 9 8 10 10 15 20 23 28 30 32 35 36 38 36 37 41 39 35 37 43 49 52 52 54 54 53 57 54 47 40 30
18 18 17 14 13 10 8 7 7 7 6 6 8 10 10 12 15 16 18 20 25 30 31 34 38 40 41 40 42 38 40 42 47 54 56 53 49 55 54 45 45 47 45
17 15 13 11 8 5 3 2 2 3 4 5 8 11 14 19 22 23 24 23 24 28 30 33 36 37 36 44 44 43 44 48 48 51 53 52 58 58 53 49 43 49 50
13 11 11 9 6 6 8 9 10 11 15 17 17 19 21 23 24 25 27 27 28 29 33 34 35 33 32 35 40 44 57 60 60 56 48 51 57 55 54 55 49 44 43
8 10 11 14 18 15 15 14 18 20 19 22 24 24 26 28 29 29 31 30 30 33 33 33 34 36 45 42 42 42 38 38 37 44 46 48 47 55 54 60 65 51 51
8 11 14 17 20 17 16 17 22 23 19 21 25 28 31 34 36 42 41 40 40 43 48 45 43 42 42 42 47 47 47 47 38 37 41 45 51 58 57 61 70 63 57
9 9 14 15 16 19 17 19 20 18 20 23 27 30 33 37 41 47 49 51 54 53 56 54 47 38 42 44 43 43 42 36 39 45 42 41 54 66 56 51 62 66 62
14 16 17 18 21 20 16 19 18 22 25 29 32 36 41 46 51 57 61 58 53 53 51 46 45 43 39 38 43 46 44 40 39 42 45 49 56 58 60 56 56 63 62
19 22 25 26 24 22 22 25 27 29 34 39 44 47 50 53 56 56 57 59 57 55 54 52 50 47 43 40 38 43 38 29 30 34 33 35 39 45 43 48 57 60 61
23 23 23 26 28 30 31 33 37 38 43 46 49 50 50 52 52 53 51 53 58 56 56 55 51 50 49 42 44 33 26 30 35 44 37 45 37 33 40 43 47 48 51
21 27 28 31 34 37 40 40 40 42 46 51 52 51 51 51 50 51 54 56 61 62 64 66 67 64 62 65 66 70 65 59 61 53 53 55 47 44 40 40 41 47 49
Wind_Direction_850mb
205 216 214 216 207 210 208 210 213 215 208 210 223 223 224 227 232 235 234 239 253 254 258 249 244 259 265 286 240 224 232 217 256 238 239 232 245 230 230 227 230 232 237
229 220 221 218 213 215 212 212 215 213 221 215 222 226 232 233 235 233 233 237 236 249 248 250 230 259 257 261 263 246 256 221 243 260 268 251 228 232 229 225 229 232 235
221 230 222 225 221 217 215 216 219 218 224 211 226 226 225 233 235 235 244 230 242 239 238 242 228 227 233 267 251 259 257 242 241 235 261 248 237 236 236 220 228 236 232
43 300 250 218 221 218 218 218 220 223 232 229 222 227 227 227 226 234 230 248 264 218 243 255 251 231 241 246 258 253 255 251 263 259 244 257 249 271 291 200 223 229 232
58 21 330 234 208 204 205 212 223 225 226 232 229 231 231 227 220 224 223 232 233 240 244 236 243 246 243 232 243 234 257 251 256 254 247 246 257 264 250 271 265 245 233
31 36 36 156 177 180 187 199 209 216 229 238 239 243 231 236 229 216 221 215 232 245 251 245 236 246 243 242 242 244 244 245 238 248 245 250 254 261 266 258 268 256 243
61 66 75 114 160 184 194 200 210 221 235 245 254 250 242 234 235 231 233 220 229 249 244 253 259 247 257 242 247 247 247 248 241 257 249 256 253 270 259 259 265 268 257
86 77 97 117 138 158 174 190 208 215 263 284 291 263 249 230 238 222 233 217 240 243 234 233 242 258 245 246 244 248 247 241 246 244 241 245 261 264 270 269 264 272 268
91 94 102 115 142 157 176 188 204 215 274 302 294 289 252 227 218 206 214 216 236 247 262 252 250 244 242 255 242 244 248 237 237 237 244 242 250 255 251 260 264 266 276
110 104 104 111 127 143 160 180 198 217 254 318 357 359 274 176 205 203 226 214 225 241 246 244 246 258 253 249 240 247 252 245 232 236 243 243 246 255 258 262 263 262 268
114 112 109 112 125 138 146 171 232 237 240 292 30 43 78 183 204 199 239 230 255 265 257 245 245 250 246 249 242 234 233 244 247 233 232 245 254 248 254 254 256 273 244
115 113 113 118 121 134 151 221 270 254 243 233 259 102 125 127 180 230 250 260 263 270 264 256 253 248 249 246 246 239 241 246 246 249 238 233 246 263 262 255 256 248 243
125 116 108 111 116 128 153 224 258 280 258 252 253 262 236 239 230 229 239 261 249 264 265 260 255 249 245 242 241 241 245 249 249 247 248 243 243 252 249 246 246 256 252
129 113 113 100 97 90 83 64 7 289 274 264 263 263 279 249 252 255 258 261 257 254 267 266 271 256 248 242 239 246 246 243 242 238 231 239 240 252 260 260 251 242 243
135 131 119 112 101 89 79 71 58 35 9 325 280 277 284 299 294 287 279 276 275 256 256 262 267 259 251 252 257 255 251 245 245 244 240 233 240 241 250 255 252 256 247
140 136 132 125 115 104 90 78 71 63 62 61 52 23 1 313 296 298 292 273 271 268 259 257 256 248 262 263 275 278 269 259 254 256 248 238 231 238 240 245 242 245 245
151 149 145 142 135 128 114 93 86 69 58 47 21 5 356 341 331 320 312 287 276 274 270 267 266 270 269 272 274 270 270 268 274 267 261 251 247 244 245 247 239 237 237
163 164 164 163 170 176 220 222 278 281 291 309 320 328 330 323 318 316 316 308 297 288 279 277 274 273 277 277 274 267 265 268 269 265 264 267 260 244 240 240 241 234 233
176 192 198 214 227 255 265 274 283 291 297 297 299 300 303 306 309 312 310 308 310 304 296 293 294 293 289 279 275 271 261 267 276 280 273 271 261 255 244 241 237 244 238
193 221 244 254 256 249 277 264 279 278 285 290 291 289 290 294 297 296 300 302 308 313 307 298 292 289 294 295 285 282 288 286 280 278 275 287 285 264 259 250 246 245 243
239 250 260 274 278 275 274 276 284 285 289 285 286 287 289 285 285 290 293 295 297 294 296 294 294 292 293 297 288 287 292 284 278 282 289 274 275 278 278 260 245 245 255
269 276 283 284 280 282 278 282 282 277 280 286 289 289 289 290 289 284 281 282 285 291 293 293 298 291 295 298 283 292 296 290 273 276 282 281 260 258 263 266 246 245 245
289 289 290 288 289 279 279 288 283 286 290 290 288 287 283 278 276 279 284 287 286 284 284 285 286 286 285 282 283 281 287 294 289 271 275 285 288 267 252 253 249 237 235
299 295 295 294 292 288 287 289 294 293 292 293 293 293 290 287 282 280 276 276 276 276 277 281 284 284 282 279 277 275 272 281 290 295 283 285 296 263 256 255 251 233 228
302 298 296 294 294 293 291 293 295 296 295 295 294 295 295 293 289 282 277 271 269 270 273 275 279 281 277 271 273 250 255 259 275 274 276 277 276 282 270 256 246 236 227
302 299 296 296 297 296 295 295 295 295 293 293 295 295 294 294 291 287 284 278 276 274 275 278 279 280 275 267 262 261 261 263 274 269 266 267 265 259 269 248 247 233 222